Location: Newark
(46.7000°N, 60.6000°W)
Time: 12:16:52
(UTC+00:00)

A-11 Canister half - Pass Details

Date: 28 October 2020
Orbit: 1525 x 1684 km, 47.3° (Epoch: 01 December)

Event Time Altitude Azimuth Distance (km) Brightness Sun altitude
Rises 16:07:35 0° 183° (S) 4,815 12.8 29.7°
Reaches altitude 10° 16:12:01 10° 166° (SSE) 3,803 12.4 29.6°
Maximum altitude 16:17:55 18° 127° (SE) 3,160 11.2 29.5°
Drops below altitude 10° 16:23:42 10° 89° (E) 3,740 11.0 29.3°
Sets 16:27:58 0° 72° (ENE) 4,707 11.3 29.1°
